Location: Asheville, NC
(35.6000°N, 82.5500°W)
Time: 16:59:56
(UTC-05:00)

NUDT-PHONESAT - Pass Details

Date: 06 January 2018
Orbit: 494 x 513 km, 97.4° (Epoch: 20 January)

Event Time Altitude Azimuth Distance (km) Brightness Sun altitude
Rises 06:39:12 0° 14° (NNE) 2,612 ? -12.2°
Reaches altitude 10° 06:41:19 10° 18° (NNE) 1,719 ? -11.8°
Maximum altitude 06:44:59 66° 100° (E) 550 ? -11.1°
Drops below altitude 10° 06:48:37 10° 184° (S) 1,695 ? -10.4°
Sets 06:50:41 0° 187° (S) 2,571 ? -10.1°
